Location: Tierra del Sol
(32.6128°N, 116.3319°W)
Time: 13:51:24
(UTC-07:00)

OTV 5 (USA 277) - Pass Details

Date: 08 October 2017
Orbit: 404 x 417 km, 43.0° (Epoch: 07 September)

Event Time Altitude Azimuth Distance (km) Brightness Sun altitude
Rises 19:53:04 0° 248° (WSW) 2,344 ? -20.3°
Reaches altitude 10° 19:55:12 10° 252° (WSW) 1,484 ? -20.7°
Enters shadow 19:58:29 56° 330° (NNW) 498 ? -21.4°
